Regional Weather Roundup
Issued by NWS

Home | Current Version | Previous Version | Text Only | Print | Product List | Glossary Off
Versions: 1 2 3 4 5 6 7 8 9 10 11 12 13 14 15 16 17 18 19 20 21 22 23 24 25 26 27 28 29 30 31 32 33 34 35 36 37 38 39 40 41 42 43 44 45 46 47 48 49 50

000
ASUS45 KBOU 021407
RWRCO

WEATHER ROUNDUP FOR COLORADO
NATIONAL WEATHER SERVICE DENVER/BOULDER CO
700 AM MST MON MAR 02 2015

NOTE: "FAIR" INDICATES FEW OR NO CLOUDS BELOW 12000 FEET WITH NO
SIGNIFICANT WEATHER AND/OR OBSTRUCTIONS TO VISIBILITY.

COZ001>005-013-030-031-021500-
...NORTHWEST COLORADO...

CITY           SKY/WX    TMP DP  RH WIND       PRES   REMARKS
CRAIG          LGT SNOW  32  29  88 E10       29.85F FOG     WCI  24
HAYDEN         CLOUDY    28  27  93 E8        29.85F VSB 3/4 WCI  20
MEEKER         FRZ RAIN  32  29  88 E3        29.84F FOG
MOUNT WERNER   NOT AVBL
STEAMBOAT SPGS CLOUDY    27  26  97 CALM      29.86F
WALDEN         CLOUDY    28  27  93 SE5       29.87F WCI  23
$$

COZ006>008-011-021500-
...WEST CENTRAL VALLEYS...

CITY           SKY/WX    TMP DP  RH WIND       PRES   REMARKS
GRAND JUNCTION CLOUDY    36  35  96 SE6       29.82F
MONTROSE       CLOUDY    38  30  73 SE8       29.89F
EAGLE          CLOUDY    30  28  93 CALM      29.92F FOG
RIFLE          LGT RAIN  33  32  96 SW5       29.86F FOG     WCI  29
DELTA          CLOUDY    41  38  87 NE9       29.87F
NUCLA          DRIZZLE   43  36  75 SW7G16    29.92S
$$

COZ017>023-064>068-021500-
...SOUTHWEST COLORADO...

CITY           SKY/WX    TMP DP  RH WIND       PRES   REMARKS
DURANGO        CLOUDY    33  32  96 E7        30.00F FOG     WCI  27
CORTEZ         PTCLDY    42  35  76 S12       29.94F
PAGOSA SPRINGS CLOUDY    34  34 100 CALM      30.04F
TELLURIDE      LGT SNOW  37  23  56 S16G44    29.98R
WOLF CREEK PAS   N/A     21  21 100 SW17G29   30.09F WCI   7
$$

COZ009-010-012-014-032>034-037-058>063-021500-
...CENTRAL COLORADO...

CITY           SKY/WX    TMP DP  RH WIND       PRES   REMARKS
ASPEN          CLOUDY    33  32  96 SW6       29.89F WCI  28
BUENA VISTA    CLOUDY    22  18  86 CALM      29.98F FOG
COPPER MTN     LGT SNOW  28  21  74 S22G33    29.96S WCI  15
BERTHOUD PASS  LGT SNOW  19  14  79 SW15G21   29.98S VSB 1   WCI   5
COTTONWOOD PAS CLOUDY    28  25  86 CALM      29.96F FOG
GUNNISON       CLOUDY    27  23  86 CALM      30.01F
KREMMLING      FLURRIES  30  28  93 CALM      29.92F
LEADVILLE      CLOUDY    18  16  92 NE3       29.94S
SALIDA         MOCLDY    21  18  88 CALM      30.07S
SUNLIGHT       LGT SNOW  30  28  93 S5        29.89R WCI  25
WILKERSON PASS CLOUDY    25  23  93 SW8G17    29.99S WCI  16
$$

COZ069>075-021500-
...SAN LUIS VALLEY/SANGRE DE CRISTO MOUNTAINS...

CITY           SKY/WX    TMP DP  RH WIND       PRES   REMARKS
ALAMOSA        MOCLDY    32  27  81 S17       30.00F WCI  21
LA VETA PASS   CLOUDY    28  23  80 S13G26    30.05F WCI  18
SAGUACHE       CLOUDY    32  30  93 S6        30.02S WCI  26
$$

COZ035-036-038>040-021500-
...NORTHERN COLORADO FRONT RANGE...

CITY           SKY/WX    TMP DP  RH WIND       PRES   REMARKS
DENVER INTL AP MOCLDY    16  13  88 SW9       29.97F FOG     WCI   4
DMNS CITY PARK   N/A     17  12  82 S5        29.98F WCI   9
AURORA         MOCLDY    13  11  91 S6        29.97F FOG     WCI   4
FRONT RANGE AP NOT AVBL
ERIE MUNI ARPT CLOUDY    23  20  89 NW3       29.99F FOG
BOULDER MUN AP CLOUDY    19  18  93 CALM      29.98F FOG
CENTENNIAL     MOCLDY    14  11  87 S3        29.96F FOG
BROOMFIELD     MOCLDY    16  14  93 NW5       29.98F WCI   9
FORT COLLINS   CLOUDY    23  19  86 N9        30.00F WCI  13
LONGMONT       CLOUDY    22  18  83 CALM      30.02S FOG
$$

COZ041-046-047-076>085-087-088-021500-
...PIKES PEAK/PALMER DIVIDE AND SOUTHERN FOOTHILLS...

CITY           SKY/WX    TMP DP  RH WIND       PRES   REMARKS
COLO. SPRINGS  CLOUDY    20  19  96 S9        30.02F FOG     WCI   9
A. F. ACADEMY  CLOUDY    18  16  92 S7        29.99F WCI   9
ELLICOTT       NOT AVBL
FALCON         FOG       19  17  95 SW10G16   29.99F VSB 1/4 WCI   7
FORT CARSON    CLOUDY    20  17  90 S7        30.02F WCI  11
LIMON          CLOUDY    20  18  92 S21G30    30.02F FOG     WCI   4
MONUMENT HILL  CLOUDY    18  14  86 S13       29.91F FOG     WCI   4
TRINIDAD       FOG       21  20  96 E5        30.02F VSB<1/4 WCI  15
$$

COZ042>045-048>051-090-091-021500-
...NORTHEAST COLORADO...

CITY           SKY/WX    TMP DP  RH WIND       PRES   REMARKS
GREELEY ARPT   PTCLDY    19  10  68 S5        29.98F WCI  13
AKRON          CLOUDY    25  18  74 S21       30.04F WCI  11
BURLINGTON     MOCLDY    22  19  89 S12       30.12F FOG     WCI  10
WRAY           CLOUDY    27  21  77 SE12      30.15F WCI  17
STERLING       CLOUDY    30  21  69 S16G22    30.06F WCI  19
HOLYOKE        NOT AVBL
FORT MORGAN    MOCLDY    25  20  81 SE13      30.03F WCI  14
$$

COZ086-089-092>099-021500-
...SOUTHEAST COLORADO...

CITY           SKY/WX    TMP DP  RH WIND       PRES   REMARKS
PUEBLO         CLOUDY    24  22  91 CALM      30.07F
LA JUNTA       CLOUDY    28  23  81 SE9       30.10F HAZE    WCI  19
LAMAR          MOCLDY    26  23  88 S15       30.13F FOG     WCI  14
SPRINGFIELD      N/A     24  22  91 S20       30.12F WCI  10
$$


USA.gov is the U.S. government's official web portal to all federal, state and local government web resources and services.